QPF
0.00 0.00 0.00 0.00 0.00 0.00 0.01 0.01 0.02 0.02 0.01 0.01 0.00 0.00 0.00 0.01 0.02 0.05 0.04 0.05 0.06 0.01 0.00 0.00 0.00 0.00 0.01 0.05 0.08 0.07 0.02 0.01 0.00 0.01 0.02 0.03 0.06 0.06 0.03 0.05 0.04 0.01 0.01 0.01 0.00 0.01 0.00 0.00 0.00 0.02 0.05 0.01 0.00 0.00
0.00 0.00 0.00 0.00 0.00 0.01 0.01 0.02 0.02 0.02 0.01 0.01 0.00 0.00 0.00 0.01 0.01 0.03 0.04 0.04 0.05 0.05 0.01 0.00 0.00 0.00 0.00 0.01 0.02 0.03 0.02 0.01 0.02 0.02 0.03 0.06 0.06 0.05 0.02 0.05 0.03 0.01 0.00 0.01 0.00 0.00 0.00 0.00 0.01 0.02 0.00 0.00 0.00 0.00
0.01 0.01 0.00 0.00 0.01 0.01 0.01 0.02 0.02 0.02 0.02 0.01 0.00 0.00 0.00 0.00 0.01 0.02 0.01 0.03 0.07 0.05 0.01 0.01 0.00 0.00 0.00 0.00 0.00 0.02 0.01 0.01 0.01 0.05 0.06 0.07 0.06 0.02 0.00 0.01 0.04 0.03 0.01 0.03 0.04 0.02 0.00 0.01 0.02 0.00 0.00 0.00 0.00 0.00
0.00 0.01 0.01 0.01 0.00 0.00 0.00 0.01 0.01 0.01 0.01 0.01 0.00 0.00 0.00 0.00 0.00 0.02 0.04 0.04 0.07 0.04 0.02 0.00 0.00 0.00 0.00 0.00 0.00 0.00 0.01 0.02 0.02 0.03 0.05 0.04 0.04 0.02 0.02 0.01 0.01 0.02 0.01 0.04 0.06 0.03 0.02 0.02 0.02 0.00 0.00 0.00 0.00 0.00
0.01 0.01 0.00 0.00 0.00 0.00 0.01 0.01 0.01 0.00 0.00 0.01 0.00 0.00 0.00 0.00 0.00 0.03 0.05 0.05 0.06 0.01 0.01 0.00 0.00 0.00 0.00 0.00 0.00 0.01 0.02 0.02 0.03 0.03 0.03 0.01 0.04 0.03 0.01 0.01 0.00 0.00 0.01 0.04 0.06 0.03 0.04 0.02 0.00 0.00 0.00 0.00 0.00 0.00
0.00 0.00 0.00 0.00 0.00 0.01 0.01 0.01 0.00 0.00 0.00 0.00 0.00 0.00 0.00 0.01 0.03 0.06 0.04 0.03 0.04 0.06 0.04 0.01 0.02 0.01 0.01 0.00 0.01 0.01 0.02 0.02 0.02 0.00 0.01 0.01 0.01 0.02 0.02 0.03 0.02 0.01 0.00 0.00 0.01 0.00 0.00 0.00 0.00 0.00 0.00 0.00 0.00 0.00
0.00 0.00 0.00 0.00 0.00 0.00 0.00 0.00 0.00 0.00 0.00 0.00 0.00 0.00 0.01 0.02 0.03 0.01 0.02 0.01 0.01 0.05 0.01 0.02 0.02 0.03 0.01 0.02 0.04 0.03 0.03 0.02 0.00 0.00 0.00 0.01 0.04 0.04 0.02 0.02 0.01 0.00 0.00 0.00 0.00 0.00 0.00 0.00 0.00 0.00 0.00 0.00 0.00 0.00
0.00 0.00 0.00 0.00 0.00 0.00 0.00 0.00 0.00 0.00 0.00 0.00 0.01 0.02 0.02 0.03 0.01 0.01 0.03 0.00 0.00 0.01 0.02 0.03 0.04 0.03 0.00 0.02 0.04 0.03 0.03 0.02 0.01 0.02 0.01 0.03 0.04 0.05 0.02 0.00 0.00 0.00 0.00 0.00 0.00 0.00 0.00 0.00 0.00 0.00 0.00 0.00 0.00 0.00
0.00 0.00 0.00 0.00 0.00 0.00 0.00 0.00 0.00 0.00 0.01 0.01 0.02 0.03 0.02 0.01 0.00 0.03 0.02 0.01 0.01 0.02 0.02 0.03 0.04 0.04 0.00 0.02 0.03 0.05 0.04 0.01 0.01 0.02 0.01 0.00 0.01 0.01 0.00 0.00 0.00 0.00 0.00 0.00 0.00 0.00 0.00 0.00 0.00 0.00 0.00 0.00 0.00 0.00
0.00 0.00 0.00 0.00 0.00 0.00 0.00 0.00 0.01 0.01 0.02 0.02 0.01 0.00 0.00 0.01 0.01 0.00 0.00 0.00 0.01 0.02 0.06 0.04 0.03 0.07 0.02 0.02 0.03 0.04 0.03 0.01 0.01 0.01 0.01 0.01 0.00 0.00 0.00 0.00 0.00 0.00 0.00 0.00 0.00 0.00 0.00 0.00 0.00 0.00 0.00 0.00 0.00 0.00
0.00 0.00 0.00 0.00 0.00 0.00 0.01 0.02 0.01 0.01 0.00 0.00 0.00 0.00 0.01 0.01 0.00 0.00 0.00 0.01 0.01 0.02 0.03 0.02 0.05 0.05 0.01 0.04 0.04 0.04 0.03 0.03 0.01 0.01 0.01 0.03 0.00 0.00 0.00 0.00 0.00 0.00 0.00 0.00 0.00 0.00 0.00 0.00 0.00 0.00 0.00 0.00 0.00 0.00
0.00 0.00 0.00 0.00 0.01 0.01 0.01 0.00 0.00 0.01 0.00 0.00 0.00 0.00 0.00 0.01 0.01 0.01 0.02 0.02 0.03 0.03 0.01 0.02 0.05 0.05 0.01 0.04 0.03 0.05 0.04 0.02 0.02 0.01 0.02 0.02 0.00 0.00 0.00 0.00 0.00 0.00 0.00 0.00 0.00 0.00 0.00 0.00 0.00 0.00 0.00 0.00 0.00 0.00
0.00 0.00 0.00 0.00 0.01 0.00 0.00 0.00 0.00 0.00 0.00 0.00 0.00 0.00 0.00 0.00 0.02 0.03 0.01 0.00 0.01 0.01 0.00 0.01 0.02 0.01 0.00 0.00 0.01 0.03 0.02 0.01 0.01 0.02 0.01 0.00 0.00 0.00 0.00 0.00 0.00 0.00 0.00 0.00 0.00 0.00 0.00 0.00 0.00 0.00 0.00 0.00 0.00 0.00
0.00 0.00 0.00 0.00 0.00 0.00 0.00 0.00 0.00 0.00 0.00 0.00 0.00 0.00 0.00 0.00 0.00 0.00 0.00 0.00 0.00 0.00 0.00 0.00 0.00 0.00 0.00 0.00 0.00 0.01 0.01 0.00 0.01 0.01 0.00 0.00 0.00 0.00 0.00 0.00 0.00 0.00 0.00 0.00 0.00 0.00 0.00 0.00 0.00 0.00 0.00 0.00 0.00 0.00
0.00 0.00 0.00 0.00 0.00 0.00 0.00 0.00 0.00 0.00 0.00 0.00 0.00 0.00 0.00 0.00 0.00 0.00 0.00 0.00 0.00 0.00 0.00 0.00 0.01 0.01 0.00 0.00 0.00 0.00 0.00 0.00 0.01 0.00 0.00 0.00 0.00 0.00 0.00 0.00 0.00 0.00 0.00 0.00 0.00 0.00 0.00 0.00 0.00 0.00 0.00 0.00 0.00 0.00
0.00 0.00 0.00 0.00 0.00 0.00 0.00 0.00 0.00 0.00 0.00 0.00 0.00 0.00 0.00 0.01 0.01 0.00 0.00 0.00 0.00 0.00 0.00 0.00 0.00 0.00 0.00 0.00 0.00 0.00 0.00 0.00 0.00 0.00 0.00 0.00 0.00 0.00 0.00 0.00 0.00 0.00 0.00 0.00 0.00 0.00 0.00 0.00 0.00 0.00 0.00 0.00 0.00 0.00
0.00 0.00 0.00 0.00 0.00 0.00 0.00 0.00 0.00 0.00 0.00 0.00 0.00 0.00 0.00 0.00 0.00 0.00 0.00 0.00 0.00 0.00 0.01 0.01 0.00 0.00 0.00 0.00 0.00 0.00 0.00 0.01 0.01 0.01 0.01 0.00 0.00 0.00 0.00 0.00 0.00 0.00 0.00 0.00 0.00 0.00 0.00 0.00 0.00 0.00 0.00 0.00 0.00 0.00
0.00 0.00 0.00 0.00 0.00 0.00 0.00 0.00 0.00 0.00 0.00 0.01 0.00 0.01 0.00 0.01 0.01 0.01 0.01 0.00 0.00 0.00 0.00 0.00 0.00 0.00 0.00 0.00 0.00 0.01 0.01 0.01 0.01 0.00 0.00 0.00 0.00 0.00 0.00 0.00 0.00 0.00 0.00 0.00 0.00 0.00 0.00 0.00 0.00 0.00 0.00 0.00 0.00 0.00
0.00 0.00 0.00 0.00 0.00 0.00 0.00 0.00 0.00 0.00 0.01 0.00 0.00 0.01 0.01 0.00 0.00 0.01 0.00 0.00 0.00 0.00 0.00 0.00 0.00 0.00 0.00 0.01 0.00 0.00 0.00 0.00 0.00 0.00 0.00 0.00 0.00 0.00 0.00 0.00 0.00 0.00 0.00 0.00 0.00 0.00 0.00 0.00 0.00 0.00 0.00 0.00 0.00 0.00
0.00 0.00 0.00 0.00 0.00 0.00 0.00 0.00 0.00 0.00 0.00 0.00 0.00 0.00 0.00 0.01 0.01 0.01 0.00 0.00 0.00 0.00 0.00 0.00 0.01 0.01 0.01 0.01 0.00 0.00 0.00 0.00 0.00 0.00 0.00 0.00 0.00 0.00 0.00 0.00 0.00 0.00 0.00 0.00 0.00 0.00 0.00 0.00 0.00 0.00 0.00 0.00 0.00 0.00
0.00 0.00 0.00 0.00 0.00 0.00 0.00 0.00 0.00 0.00 0.00 0.00 0.00 0.00 0.00 0.00 0.00 0.00 0.00 0.00 0.00 0.00 0.00 0.01 0.01 0.01 0.01 0.01 0.01 0.00 0.00 0.00 0.00 0.00 0.00 0.00 0.00 0.00 0.00 0.00 0.00 0.00 0.00 0.00 0.00 0.00 0.00 0.00 0.00 0.00 0.00 0.00 0.00 0.00
0.00 0.00 0.00 0.00 0.00 0.00 0.00 0.00 0.00 0.00 0.00 0.00 0.00 0.00 0.00 0.00 0.00 0.00 0.00 0.00 0.00 0.00 0.01 0.01 0.01 0.00 0.00 0.00 0.00 0.00 0.00 0.00 0.00 0.00 0.00 0.00 0.00 0.00 0.00 0.00 0.00 0.00 0.00 0.00 0.00 0.00 0.00 0.00 0.00 0.00 0.00 0.00 0.00 0.00
0.00 0.00 0.00 0.00 0.00 0.00 0.00 0.00 0.01 0.01 0.01 0.00 0.00 0.00 0.00 0.00 0.00 0.00 0.00 0.00 0.00 0.01 0.00 0.00 0.00 0.00 0.00 0.00 0.00 0.00 0.00 0.00 0.00 0.00 0.00 0.00 0.00 0.00 0.00 0.00 0.00 0.00 0.00 0.00 0.00 0.00 0.00 0.00 0.00 0.00 0.00 0.00 0.00 0.00
0.00 0.00 0.00 0.00 0.00 0.00 0.00 0.00 0.00 0.00 0.00 0.00 0.00 0.00 0.00 0.00 0.00 0.00 0.00 0.00 0.01 0.00 0.00 0.00 0.00 0.00 0.00 0.00 0.00 0.00 0.00 0.00 0.00 0.00 0.00 0.00 0.00 0.00 0.00 0.00 0.00 0.00 0.00 0.00 0.00 0.00 0.00 0.00 0.00 0.00 0.00 0.00 0.00 0.00
0.00 0.00 0.00 0.00 0.00 0.00 0.00 0.00 0.00 0.00 0.00 0.00 0.00 0.00 0.00 0.00 0.00 0.00 0.00 0.00 0.00 0.00 0.00 0.00 0.00 0.00 0.00 0.00 0.00 0.00 0.00 0.00 0.00 0.00 0.00 0.00 0.00 0.00 0.00 0.00 0.00 0.00 0.00 0.00 0.00 0.00 0.00 0.00 0.00 0.00 0.00 0.00 0.00 0.00
0.00 0.00 0.00 0.00 0.00 0.00 0.00 0.00 0.00 0.00 0.00 0.00 0.00 0.00 0.00 0.00 0.00 0.00 0.00 0.00 0.00 0.01 0.01 0.01 0.00 0.00 0.00 0.00 0.00 0.00 0.00 0.00 0.00 0.00 0.00 0.00 0.00 0.00 0.00 0.00 0.00 0.00 0.00 0.00 0.00 0.00 0.00 0.00 0.00 0.00 0.00 0.00 0.00 0.00
0.00 0.00 0.00 0.00 0.00 0.00 0.00 0.00 0.00 0.00 0.00 0.00 0.00 0.00 0.00 0.00 0.00 0.00 0.00 0.00 0.00 0.00 0.00 0.00 0.00 0.00 0.00 0.00 0.00 0.00 0.00 0.00 0.00 0.00 0.00 0.00 0.00 0.00 0.00 0.00 0.00 0.00 0.00 0.00 0.00 0.00 0.00 0.00 0.00 0.00 0.00 0.00 0.00 0.00
0.00 0.00 0.00 0.00 0.00 0.00 0.00 0.00 0.00 0.00 0.00 0.00 0.00 0.00 0.00 0.00 0.00 0.00 0.00 0.00 0.00 0.00 0.00 0.00 0.00 0.00 0.00 0.00 0.00 0.00 0.00 0.00 0.00 0.00 0.00 0.00 0.00 0.00 0.00 0.00 0.00 0.00 0.00 0.00 0.00 0.00 0.00 0.00 0.00 0.00 0.00 0.00 0.00 0.00
0.00 0.00 0.00 0.00 0.00 0.00 0.00 0.00 0.00 0.00 0.00 0.00 0.00 0.00 0.00 0.00 0.00 0.00 0.00 0.00 0.00 0.00 0.00 0.00 0.00 0.00 0.00 0.00 0.00 0.00 0.00 0.00 0.00 0.00 0.00 0.00 0.00 0.00 0.00 0.00 0.00 0.00 0.00 0.00 0.00 0.00 0.00 0.00 0.00 0.00 0.00 0.00 0.00 0.00
0.00 0.00 0.00 0.00 0.00 0.00 0.00 0.00 0.00 0.00 0.00 0.00 0.00 0.00 0.00 0.00 0.01 0.01 0.00 0.00 0.00 0.00 0.00 0.00 0.00 0.00 0.00 0.00 0.00 0.00 0.00 0.00 0.00 0.00 0.00 0.00 0.00 0.00 0.00 0.00 0.00 0.00 0.00 0.00 0.00 0.00 0.00 0.00 0.00 0.00 0.00 0.00 0.00 0.00
0.00 0.00 0.00 0.00 0.00 0.00 0.00 0.00 0.00 0.00 0.00 0.00 0.00 0.00 0.00 0.00 0.00 0.00 0.00 0.00 0.00 0.00 0.00 0.00 0.00 0.00 0.00 0.00 0.00 0.00 0.00 0.00 0.00 0.00 0.00 0.00 0.00 0.00 0.00 0.00 0.00 0.00 0.00 0.00 0.00 0.00 0.00 0.00 0.00 0.00 0.00 0.00 0.00 0.00
0.00 0.00 0.00 0.00 0.00 0.00 0.00 0.00 0.00 0.00 0.00 0.00 0.00 0.00 0.00 0.00 0.00 0.00 0.00 0.00 0.00 0.00 0.00 0.00 0.00 0.00 0.00 0.00 0.00 0.00 0.00 0.00 0.00 0.00 0.00 0.00 0.00 0.00 0.00 0.00 0.00 0.00 0.00 0.00 0.00 0.00 0.00 0.00 0.00 0.00 0.00 0.00 0.00 0.00
0.00 0.00 0.00 0.00 0.00 0.00 0.00 0.00 0.00 0.00 0.00 0.00 0.00 0.00 0.00 0.00 0.00 0.00 0.00 0.00 0.00 0.00 0.00 0.00 0.00 0.00 0.00 0.00 0.00 0.00 0.00 0.00 0.00 0.00 0.00 0.00 0.00 0.00 0.00 0.00 0.00 0.00 0.00 0.00 0.00 0.00 0.00 0.00 0.00 0.00 0.00 0.00 0.00 0.00
MSLP
1008.76 1008.54 1008.37 1008.16 1007.96 1007.74 1007.57 1007.49 1007.51 1007.60 1007.80 1008.26 1009.02 1009.73 1010.38 1011.03 1011.61 1012.23 1012.42 1013.04 1013.40 1012.82 1011.17 1010.58 1010.30 1010.49 1010.13 1010.34 1009.84 1009.31 1009.75 1009.86 1010.37 1010.16 1009.13 1007.58 1006.16 1004.93 1004.21 1003.89 1003.64 1003.55 1004.16 1004.14 1004.16 1003.30 1001.94 1000.46 1000.20 1000.74 1002.18 1002.82 1003.17 1003.49
1007.67 1007.30 1006.97 1006.71 1006.43 1006.15 1005.92 1005.78 1005.75 1005.77 1005.56 1006.36 1007.24 1008.48 1009.28 1010.13 1010.86 1011.78 1012.00 1012.26 1012.87 1012.88 1011.07 1010.43 1009.89 1009.82 1009.90 1010.38 1010.53 1010.01 1009.36 1010.16 1009.94 1009.77 1008.35 1007.31 1006.30 1005.04 1004.25 1003.96 1004.70 1004.53 1003.08 1003.01 1002.83 1002.18 1001.36 1000.75 1001.38 1002.28 1002.93 1003.68 1004.53 1004.58
1006.32 1005.94 1005.58 1005.30 1004.91 1004.54 1004.27 1004.07 1003.96 1003.98 1004.20 1004.56 1005.42 1007.26 1008.24 1009.21 1010.05 1010.85 1011.25 1011.47 1012.21 1012.42 1011.56 1010.73 1009.47 1009.23 1009.31 1009.50 1009.53 1010.13 1009.53 1009.46 1010.12 1010.40 1009.22 1007.59 1006.24 1005.39 1004.71 1004.13 1004.11 1004.59 1003.67 1002.64 1002.98 1002.02 1001.92 1002.44 1002.89 1003.14 1003.93 1004.48 1005.26 1005.78
1005.02 1004.60 1004.15 1003.63 1003.15 1002.78 1002.51 1002.38 1002.40 1002.52 1003.02 1003.64 1004.84 1006.34 1007.40 1008.54 1009.53 1010.45 1010.77 1010.90 1011.68 1011.96 1011.12 1008.99 1008.34 1007.93 1008.26 1008.70 1008.87 1009.12 1009.49 1009.87 1010.49 1010.21 1009.30 1007.62 1006.43 1005.91 1005.32 1004.67 1004.52 1004.65 1004.82 1003.46 1003.07 1003.31 1004.10 1004.66 1004.46 1004.33 1005.06 1006.05 1006.71 1006.95
1003.71 1003.17 1002.67 1002.21 1001.65 1001.32 1001.07 1001.16 1001.31 1001.63 1002.29 1002.96 1004.27 1005.67 1006.89 1008.11 1009.17 1010.08 1010.77 1010.69 1010.95 1010.91 1009.56 1009.02 1008.52 1007.37 1007.09 1007.80 1008.19 1008.61 1009.08 1009.66 1010.24 1009.93 1009.04 1007.61 1006.28 1006.13 1005.68 1005.22 1004.98 1004.28 1004.54 1004.37 1004.43 1004.49 1004.86 1005.76 1005.84 1006.23 1006.92 1007.57 1008.05 1008.32
1002.30 1001.83 1001.30 1000.82 1000.59 1000.37 1000.18 1000.25 1000.67 1001.36 1002.09 1003.00 1004.19 1005.41 1006.63 1007.84 1009.08 1010.28 1010.73 1010.48 1010.34 1010.97 1011.11 1009.43 1008.20 1007.45 1007.06 1007.19 1007.45 1007.88 1008.70 1009.69 1009.98 1009.85 1009.10 1007.40 1006.28 1006.43 1006.25 1006.32 1006.80 1006.55 1005.77 1005.84 1006.10 1006.05 1006.02 1006.74 1007.63 1008.12 1008.27 1008.87 1009.10 1009.49
1000.98 1000.54 1000.07 999.90 999.70 999.56 999.46 999.82 1000.49 1001.27 1002.17 1003.12 1004.19 1005.36 1006.56 1007.65 1008.69 1009.31 1008.89 1008.31 1009.02 1010.81 1011.06 1009.97 1007.61 1006.08 1006.26 1006.45 1007.04 1007.66 1008.52 1009.25 1009.82 1009.55 1009.17 1008.05 1006.94 1006.67 1007.03 1007.42 1008.07 1008.12 1007.60 1007.48 1007.48 1006.75 1006.66 1008.00 1008.88 1009.51 1009.74 1009.95 1010.24 1011.33
999.85 999.53 999.32 999.17 999.00 998.98 999.06 999.45 1000.34 1001.23 1002.22 1003.17 1004.25 1005.33 1006.36 1007.41 1008.71 1009.00 1008.54 1007.98 1008.94 1010.32 1010.95 1009.76 1007.60 1006.25 1006.34 1006.57 1006.97 1007.84 1008.34 1008.79 1009.15 1008.98 1008.92 1007.96 1007.18 1007.48 1008.54 1009.39 1009.56 1009.78 1009.01 1008.99 1009.05 1008.86 1009.48 1009.87 1010.22 1010.54 1010.87 1011.31 1012.11 1012.97
999.01 998.74 998.42 998.24 998.13 998.12 998.55 999.16 1000.13 1001.07 1002.22 1003.34 1004.39 1005.37 1006.09 1007.20 1007.47 1007.53 1008.24 1008.88 1008.94 1009.56 1009.49 1008.47 1006.83 1005.88 1005.71 1005.97 1006.68 1007.28 1007.81 1008.24 1008.53 1008.24 1007.79 1007.91 1007.93 1009.40 1011.00 1011.28 1011.63 1011.70 1011.42 1011.16 1010.78 1010.29 1010.60 1011.14 1011.53 1012.10 1012.61 1013.07 1013.68 1014.59
998.38 998.00 997.63 997.29 997.16 997.46 998.19 999.01 999.99 1000.95 1002.14 1003.60 1004.91 1005.83 1006.37 1006.50 1006.81 1007.67 1008.76 1009.16 1009.37 1008.94 1008.21 1006.84 1005.97 1005.89 1005.76 1005.80 1006.10 1006.65 1006.96 1006.96 1007.45 1007.54 1007.60 1008.15 1010.29 1011.79 1012.26 1012.84 1013.20 1013.32 1013.15 1013.05 1012.47 1012.71 1012.99 1013.15 1013.37 1014.14 1014.76 1015.28 1015.68 1016.26
998.10 997.50 996.75 996.31 996.93 997.54 998.09 998.95 1000.00 1001.20 1002.29 1003.56 1004.56 1004.85 1005.64 1006.33 1006.85 1007.62 1008.29 1008.39 1008.21 1007.84 1006.66 1005.86 1005.49 1005.46 1005.93 1005.82 1005.97 1006.29 1006.51 1006.40 1006.56 1007.17 1007.80 1008.67 1011.14 1012.85 1013.49 1014.06 1014.49 1014.88 1014.87 1014.81 1014.85 1015.16 1015.37 1015.48 1015.57 1016.01 1016.76 1017.29 1017.77 1018.15
998.15 997.24 996.76 996.93 997.41 998.01 998.80 999.81 1000.73 1001.51 1002.18 1002.86 1003.57 1005.10 1006.06 1006.53 1006.70 1007.08 1007.12 1007.06 1006.66 1005.74 1005.27 1005.09 1005.21 1005.78 1006.07 1006.14 1006.27 1006.14 1006.06 1006.30 1006.41 1007.34 1008.14 1009.93 1012.95 1013.99 1014.67 1015.37 1015.88 1016.14 1016.32 1016.43 1016.51 1016.72 1016.99 1017.13 1017.42 1017.86 1018.34 1018.92 1019.34 1019.78
998.61 998.04 997.92 998.14 998.62 999.32 1000.00 1000.73 1001.08 1001.75 1002.17 1002.85 1004.06 1005.39 1005.66 1006.27 1006.02 1005.98 1006.19 1006.22 1006.17 1006.09 1005.97 1005.73 1005.96 1006.50 1006.75 1006.88 1006.87 1006.94 1006.65 1006.73 1006.83 1007.81 1009.72 1012.32 1014.05 1015.04 1015.72 1016.31 1016.87 1017.17 1017.46 1017.74 1018.09 1018.45 1018.63 1018.81 1019.12 1019.44 1019.95 1020.36 1020.66 1021.06
999.61 999.49 999.48 999.61 999.95 1000.19 1000.73 1001.50 1001.90 1002.31 1002.11 1002.96 1003.99 1005.42 1005.85 1006.38 1006.89 1007.19 1007.03 1006.93 1007.35 1007.14 1006.80 1006.63 1007.03 1007.29 1007.66 1007.68 1007.63 1007.68 1007.88 1007.88 1008.12 1009.15 1011.67 1013.98 1015.35 1016.36 1017.11 1017.60 1018.06 1018.55 1018.90 1019.24 1019.54 1019.70 1019.94 1020.25 1020.69 1021.07 1021.33 1021.69 1021.97 1022.35
1000.68 1000.70 1000.93 1001.43 1001.44 1001.74 1002.02 1002.17 1002.18 1002.32 1003.23 1004.31 1004.99 1006.36 1007.45 1008.22 1008.35 1008.37 1008.24 1008.04 1008.21 1007.90 1007.58 1007.56 1007.75 1007.81 1008.11 1008.33 1008.35 1008.66 1008.88 1009.02 1010.31 1012.00 1013.85 1015.58 1016.71 1017.52 1018.18 1018.79 1019.20 1019.62 1020.03 1020.24 1020.46 1020.77 1021.17 1021.57 1021.86 1022.05 1022.45 1022.75 1022.98 1023.13
1001.42 1001.52 1002.24 1002.40 1002.60 1002.64 1002.30 1002.04 1002.57 1003.39 1005.21 1006.67 1007.70 1008.17 1008.35 1008.41 1008.71 1008.75 1008.64 1008.83 1008.98 1008.52 1008.10 1007.80 1007.98 1008.34 1008.86 1009.01 1009.38 1010.06 1010.22 1011.34 1012.97 1014.56 1016.00 1017.05 1017.94 1018.55 1019.07 1019.57 1019.96 1020.35 1020.63 1020.98 1021.27 1021.65 1021.99 1022.17 1022.48 1022.92 1023.24 1023.43 1023.61 1023.78
1001.10 1002.14 1002.90 1002.96 1003.11 1003.00 1002.78 1003.15 1004.38 1005.77 1007.19 1008.34 1009.45 1009.69 1009.46 1009.49 1009.80 1009.91 1009.84 1009.77 1009.50 1008.89 1008.36 1008.37 1008.67 1009.67 1010.14 1010.23 1011.52 1012.50 1013.09 1014.30 1015.31 1016.35 1017.33 1018.22 1018.86 1019.42 1019.90 1020.30 1020.63 1020.88 1021.14 1021.38 1021.65 1021.89 1022.17 1022.50 1022.65 1022.78 1023.07 1023.49 1023.79 1024.23
1001.76 1002.86 1003.04 1003.04 1002.83 1003.24 1003.92 1004.49 1005.69 1007.27 1008.78 1009.61 1009.85 1010.48 1010.54 1010.63 1010.56 1010.65 1010.63 1010.18 1009.44 1009.23 1009.42 1010.07 1010.49 1011.15 1011.97 1012.31 1013.60 1014.95 1015.74 1016.48 1017.18 1017.94 1018.75 1019.34 1019.76 1020.15 1020.49 1020.79 1021.07 1021.30 1021.57 1021.83 1022.03 1022.19 1022.32 1022.37 1022.53 1022.92 1023.28 1023.65 1023.85 1024.07
1002.16 1002.59 1003.18 1003.41 1003.35 1003.78 1005.02 1006.10 1006.66 1008.53 1010.08 1010.67 1011.09 1011.27 1011.44 1011.72 1011.84 1011.74 1011.41 1011.02 1010.71 1010.38 1010.71 1011.44 1012.60 1013.53 1014.38 1015.05 1015.71 1016.54 1017.30 1017.95 1018.68 1019.45 1020.06 1020.53 1020.77 1021.00 1021.23 1021.45 1021.64 1021.80 1021.98 1022.13 1022.25 1022.51 1022.79 1022.88 1022.89 1022.97 1023.17 1023.30 1023.60 1024.11
1002.96 1003.25 1003.50 1003.70 1003.85 1004.48 1006.13 1007.43 1007.79 1008.94 1010.21 1011.33 1011.61 1011.90 1012.20 1012.51 1012.63 1012.71 1012.57 1012.13 1011.93 1012.27 1013.54 1014.56 1015.50 1016.23 1016.51 1016.91 1017.26 1017.76 1018.39 1019.00 1019.40 1019.87 1020.53 1021.02 1021.25 1021.38 1021.54 1021.73 1021.95 1022.16 1022.35 1022.62 1022.76 1022.85 1023.10 1023.47 1023.90 1024.23 1024.35 1024.48 1024.30 1024.77
1003.10 1003.65 1003.59 1003.53 1004.25 1005.25 1006.72 1007.89 1008.91 1009.87 1010.60 1011.24 1011.96 1012.20 1012.88 1013.23 1013.30 1013.40 1013.51 1013.71 1013.87 1015.23 1016.43 1017.36 1017.65 1018.01 1018.34 1018.55 1018.75 1019.01 1019.27 1019.53 1019.68 1020.02 1020.59 1021.19 1021.66 1021.83 1022.01 1022.09 1022.05 1022.08 1022.39 1022.74 1023.03 1023.55 1023.80 1024.09 1024.47 1024.77 1024.96 1025.24 1025.51 1025.76
1003.21 1003.52 1003.69 1003.99 1005.09 1006.50 1008.04 1008.94 1009.14 1009.86 1010.53 1011.34 1011.79 1012.08 1012.76 1013.51 1013.98 1014.57 1015.13 1015.48 1017.17 1018.22 1018.23 1018.68 1019.03 1019.25 1019.45 1019.64 1019.76 1019.88 1020.09 1020.20 1020.58 1020.95 1021.36 1021.58 1021.78 1022.04 1022.33 1022.52 1022.68 1023.07 1023.34 1023.57 1023.75 1024.15 1024.56 1025.01 1025.46 1025.32 1025.51 1025.77 1025.95 1026.40
1003.55 1003.48 1003.98 1004.69 1005.80 1007.15 1009.01 1009.40 1009.18 1009.54 1010.18 1011.30 1011.69 1012.19 1013.08 1013.92 1014.63 1014.99 1016.45 1017.95 1019.10 1019.70 1019.72 1019.83 1020.17 1020.38 1020.56 1020.79 1020.81 1020.82 1020.85 1020.97 1021.32 1021.69 1021.98 1022.30 1022.66 1022.92 1023.12 1023.33 1023.54 1023.75 1024.01 1024.43 1024.63 1024.88 1025.54 1025.96 1026.05 1025.99 1026.08 1026.02 1026.10 1026.42
1004.30 1005.08 1005.50 1005.83 1006.56 1007.84 1008.50 1008.67 1008.63 1009.12 1010.12 1010.80 1011.57 1012.62 1013.34 1014.04 1014.73 1015.78 1017.44 1018.94 1019.81 1020.19 1020.32 1020.50 1020.54 1020.73 1020.94 1021.10 1021.29 1021.55 1021.67 1021.83 1022.14 1022.47 1022.56 1022.80 1023.21 1023.65 1023.95 1024.29 1024.69 1024.96 1025.08 1025.22 1025.44 1025.72 1025.98 1026.31 1026.54 1026.33 1026.52 1026.45 1026.51 1026.65
1005.24 1007.74 1007.25 1007.24 1007.29 1007.65 1008.21 1008.64 1008.87 1009.27 1010.22 1011.03 1011.72 1012.79 1013.55 1014.01 1014.74 1016.34 1017.88 1019.30 1019.85 1020.22 1020.32 1020.32 1020.40 1020.70 1021.22 1021.77 1022.27 1022.56 1022.45 1022.38 1022.74 1023.27 1023.57 1023.65 1023.92 1024.15 1024.60 1025.09 1025.58 1025.86 1025.85 1025.68 1025.83 1026.06 1026.49 1026.75 1026.74 1026.80 1026.85 1026.81 1027.05 1026.98
1007.20 1008.89 1008.60 1008.25 1008.22 1007.93 1008.29 1008.77 1009.19 1010.00 1010.83 1011.67 1012.58 1013.31 1013.49 1014.00 1015.25 1017.05 1018.31 1019.39 1020.12 1020.52 1020.63 1020.73 1020.82 1021.03 1021.44 1021.94 1022.52 1023.18 1023.59 1023.47 1023.56 1024.21 1024.78 1024.82 1024.79 1024.72 1024.98 1025.30 1025.69 1026.49 1026.79 1026.85 1026.68 1026.53 1026.59 1026.92 1027.02 1027.23 1027.18 1027.18 1027.47 1027.48
1008.74 1009.72 1010.14 1010.09 1009.68 1009.15 1009.58 1010.11 1010.43 1010.91 1011.58 1012.33 1013.00 1013.58 1014.11 1015.23 1016.94 1018.78 1019.43 1020.10 1020.69 1021.24 1021.40 1021.46 1021.33 1021.68 1022.54 1023.37 1024.00 1024.55 1024.91 1024.98 1024.81 1025.30 1025.73 1025.97 1026.18 1026.28 1026.42 1026.63 1027.08 1027.65 1027.54 1027.64 1027.54 1027.47 1027.34 1027.27 1027.26 1027.30 1027.29 1027.22 1027.19 1027.28
1010.70 1011.07 1011.30 1011.57 1011.51 1011.46 1011.60 1012.09 1012.56 1013.07 1013.70 1013.98 1014.08 1015.11 1015.93 1017.02 1018.61 1019.67 1020.51 1021.23 1021.79 1022.23 1022.57 1022.82 1022.93 1023.22 1023.76 1024.39 1024.90 1025.26 1025.64 1025.95 1026.09 1026.10 1026.37 1026.62 1026.90 1027.25 1027.55 1028.04 1028.41 1028.44 1028.40 1028.48 1028.54 1028.17 1027.98 1027.89 1027.80 1027.68 1027.55 1027.48 1027.49 1027.48
1011.70 1012.43 1013.01 1013.39 1013.40 1014.16 1014.74 1014.77 1015.15 1015.88 1016.25 1015.39 1015.72 1017.21 1018.72 1019.74 1020.49 1021.09 1021.68 1022.15 1022.61 1022.99 1023.43 1023.90 1024.47 1024.80 1024.99 1025.21 1025.59 1025.87 1026.06 1026.11 1026.04 1026.26 1026.36 1026.54 1026.91 1027.74 1028.02 1028.29 1028.48 1028.46 1028.43 1028.60 1028.57 1028.37 1028.25 1028.29 1028.23 1028.36 1028.17 1027.99 1027.79 1027.72
1012.67 1012.95 1013.75 1014.79 1015.47 1016.57 1017.23 1016.88 1017.01 1017.41 1017.43 1017.62 1018.43 1019.49 1020.34 1021.33 1022.07 1022.35 1022.52 1022.71 1023.01 1023.48 1023.96 1024.31 1024.63 1024.85 1025.20 1025.60 1026.24 1026.85 1027.31 1027.53 1027.56 1027.39 1027.21 1027.43 1027.84 1028.32 1028.45 1028.62 1028.77 1028.74 1028.72 1028.62 1028.45 1028.26 1028.17 1028.11 1027.94 1027.82 1028.07 1027.95 1027.62 1027.55
1012.89 1013.31 1014.39 1015.74 1017.14 1018.24 1018.17 1018.09 1018.01 1018.13 1018.29 1018.70 1019.39 1020.21 1021.08 1022.31 1023.39 1023.79 1023.80 1023.94 1024.23 1024.52 1024.68 1024.94 1025.27 1025.59 1025.82 1026.09 1026.50 1026.95 1027.69 1028.53 1028.81 1028.84 1028.66 1028.71 1028.83 1028.89 1029.22 1029.32 1029.37 1029.25 1028.91 1028.86 1028.78 1028.55 1028.56 1028.51 1028.17 1027.97 1027.90 1027.94 1027.97 1027.98
1013.35 1013.91 1014.86 1016.29 1017.82 1018.40 1018.46 1018.09 1018.30 1018.75 1019.22 1019.54 1020.06 1020.69 1021.22 1021.80 1023.12 1024.46 1025.27 1024.88 1024.65 1024.90 1025.34 1025.29 1025.80 1026.72 1027.16 1027.53 1027.85 1028.15 1028.44 1028.92 1029.24 1029.39 1029.51 1029.51 1029.50 1029.54 1029.44 1029.45 1029.40 1029.28 1029.27 1029.28 1028.98 1028.78 1028.67 1028.65 1028.54 1028.42 1028.30 1028.21 1028.16 1028.23
1014.39 1014.77 1015.34 1016.20 1017.50 1017.71 1018.00 1017.58 1018.01 1018.90 1019.32 1019.98 1020.77 1021.05 1021.76 1022.14 1023.58 1025.04 1025.85 1025.86 1025.50 1025.41 1025.99 1026.58 1027.19 1027.65 1027.94 1028.12 1028.41 1028.73 1029.26 1029.96 1030.42 1030.46 1030.66 1030.80 1030.91 1030.77 1030.40 1029.59 1029.63 1029.47 1029.55 1029.46 1029.26 1029.02 1028.86 1028.78 1028.73 1028.66 1028.59 1028.49 1028.39 1028.31
Thickness
5325 5324 5323 5322 5322 5323 5324 5325 5326 5326 5326 5323 5316 5312 5308 5304 5304 5304 5307 5306 5309 5320 5345 5357 5366 5367 5379 5380 5393 5410 5406 5408 5406 5411 5433 5455 5466 5482 5490 5492 5496 5501 5490 5492 5496 5499 5506 5551 5553 5539 5533 5535 5535 5533
5326 5327 5328 5328 5330 5332 5334 5335 5336 5336 5338 5332 5325 5316 5311 5307 5305 5302 5305 5310 5313 5317 5344 5352 5363 5371 5376 5377 5376 5388 5412 5396 5417 5420 5450 5459 5461 5477 5489 5489 5480 5477 5506 5502 5509 5517 5538 5544 5536 5532 5528 5523 5516 5520
5331 5332 5334 5336 5338 5341 5344 5345 5346 5345 5344 5341 5334 5321 5315 5311 5309 5308 5311 5316 5316 5318 5331 5344 5363 5373 5378 5383 5388 5380 5403 5415 5410 5409 5427 5446 5457 5473 5478 5489 5490 5479 5497 5509 5504 5522 5528 5522 5521 5520 5514 5510 5507 5506
5334 5337 5341 5344 5347 5350 5353 5354 5354 5353 5349 5343 5334 5325 5319 5314 5312 5310 5315 5321 5319 5322 5333 5361 5372 5381 5384 5385 5391 5398 5401 5402 5400 5406 5415 5438 5453 5464 5467 5483 5484 5479 5472 5502 5508 5508 5496 5492 5502 5505 5501 5496 5492 5494
5339 5343 5347 5350 5354 5357 5359 5359 5358 5357 5351 5346 5338 5330 5323 5317 5315 5314 5314 5322 5326 5337 5351 5359 5368 5384 5393 5392 5396 5399 5401 5403 5397 5405 5415 5433 5457 5458 5469 5478 5481 5491 5475 5488 5491 5489 5486 5472 5482 5486 5482 5477 5474 5476
5345 5349 5353 5357 5358 5360 5362 5362 5360 5356 5352 5346 5339 5332 5326 5321 5315 5311 5311 5323 5331 5332 5333 5354 5374 5382 5394 5399 5403 5405 5402 5396 5398 5400 5411 5441 5456 5454 5457 5460 5454 5462 5475 5472 5471 5473 5478 5472 5464 5462 5465 5461 5462 5462
5351 5354 5358 5359 5360 5361 5363 5361 5358 5355 5350 5345 5340 5334 5329 5325 5322 5322 5337 5347 5344 5335 5337 5354 5383 5403 5404 5405 5402 5403 5400 5396 5395 5401 5409 5427 5445 5451 5450 5456 5435 5441 5454 5455 5455 5466 5475 5458 5447 5443 5444 5446 5447 5436
5356 5357 5358 5358 5359 5359 5360 5361 5357 5355 5349 5345 5341 5337 5333 5330 5324 5329 5338 5347 5346 5340 5339 5355 5381 5399 5402 5398 5399 5397 5396 5397 5398 5405 5408 5423 5442 5443 5430 5421 5426 5421 5437 5435 5435 5444 5436 5436 5434 5431 5430 5428 5421 5413
5358 5357 5358 5360 5360 5360 5360 5360 5357 5356 5351 5345 5341 5337 5337 5332 5336 5343 5342 5342 5347 5349 5352 5369 5386 5402 5411 5409 5406 5403 5401 5399 5400 5410 5421 5427 5433 5417 5388 5396 5394 5397 5404 5408 5416 5427 5425 5419 5417 5413 5408 5406 5401 5392
5356 5356 5358 5362 5363 5363 5361 5359 5357 5357 5353 5345 5340 5337 5339 5343 5346 5345 5340 5341 5345 5353 5366 5385 5401 5399 5409 5412 5413 5411 5411 5416 5411 5416 5422 5418 5386 5379 5383 5379 5380 5381 5385 5385 5396 5395 5394 5395 5395 5386 5380 5377 5374 5367
5355 5355 5359 5362 5360 5360 5360 5360 5358 5356 5353 5350 5347 5351 5349 5348 5350 5349 5350 5355 5358 5366 5385 5397 5403 5403 5404 5406 5410 5411 5407 5418 5421 5420 5416 5416 5385 5367 5371 5367 5365 5362 5365 5366 5367 5365 5365 5365 5367 5363 5355 5350 5345 5342
5353 5357 5359 5359 5359 5359 5358 5357 5357 5359 5359 5360 5361 5352 5350 5350 5355 5363 5368 5368 5381 5397 5401 5402 5404 5401 5401 5405 5404 5412 5416 5418 5421 5410 5415 5398 5357 5355 5355 5351 5349 5348 5348 5348 5349 5348 5346 5345 5344 5340 5335 5329 5324 5320
5354 5356 5357 5356 5355 5354 5354 5357 5361 5361 5364 5365 5360 5354 5361 5360 5375 5383 5381 5389 5390 5386 5388 5392 5391 5390 5393 5394 5398 5397 5405 5414 5419 5412 5393 5364 5349 5347 5343 5339 5335 5334 5333 5333 5330 5327 5325 5323 5321 5319 5314 5309 5307 5302
5354 5353 5353 5354 5355 5357 5358 5358 5361 5364 5373 5372 5369 5355 5367 5368 5364 5363 5370 5373 5367 5372 5379 5386 5380 5383 5378 5385 5390 5396 5392 5398 5410 5415 5376 5344 5332 5327 5323 5320 5316 5314 5314 5313 5311 5310 5307 5305 5300 5296 5294 5291 5287 5282
5355 5354 5351 5350 5353 5355 5358 5361 5366 5371 5369 5362 5367 5357 5348 5344 5347 5350 5353 5360 5357 5364 5372 5374 5377 5383 5381 5380 5387 5386 5389 5406 5385 5368 5347 5328 5320 5314 5309 5304 5302 5300 5299 5299 5298 5295 5290 5286 5283 5281 5277 5273 5270 5267
5358 5357 5352 5353 5355 5357 5364 5370 5370 5368 5355 5344 5341 5345 5347 5351 5350 5351 5356 5354 5353 5360 5369 5378 5381 5381 5377 5382 5383 5378 5393 5379 5354 5335 5323 5315 5308 5303 5300 5297 5295 5292 5291 5288 5286 5281 5277 5274 5270 5265 5261 5258 5255 5252
5369 5363 5356 5357 5359 5364 5368 5369 5361 5350 5342 5336 5328 5331 5338 5341 5340 5341 5344 5345 5350 5361 5375 5378 5380 5367 5365 5377 5358 5347 5350 5335 5326 5318 5311 5304 5299 5294 5291 5288 5286 5284 5281 5279 5275 5271 5267 5263 5261 5259 5255 5250 5245 5239
5369 5361 5361 5363 5368 5367 5365 5363 5354 5343 5329 5329 5331 5327 5330 5331 5336 5337 5339 5346 5358 5365 5367 5355 5362 5358 5350 5360 5339 5323 5317 5312 5308 5302 5296 5292 5289 5286 5282 5279 5276 5274 5271 5267 5265 5262 5259 5258 5254 5248 5243 5238 5235 5231
5369 5367 5363 5364 5367 5366 5357 5351 5351 5330 5322 5322 5322 5325 5326 5325 5327 5331 5337 5343 5349 5356 5356 5352 5340 5334 5327 5322 5315 5307 5302 5299 5292 5285 5281 5277 5275 5273 5270 5267 5264 5262 5259 5257 5255 5251 5246 5244 5243 5240 5236 5233 5227 5219
5364 5364 5364 5364 5364 5361 5347 5340 5343 5334 5325 5318 5320 5320 5321 5321 5324 5324 5328 5337 5340 5337 5322 5317 5313 5309 5308 5306 5304 5300 5294 5288 5284 5280 5274 5270 5268 5266 5263 5260 5256 5253 5251 5247 5244 5241 5237 5231 5223 5216 5212 5207 5206 5198
5366 5363 5365 5368 5362 5357 5346 5337 5328 5325 5323 5320 5318 5321 5315 5317 5318 5319 5321 5323 5322 5311 5301 5296 5296 5294 5292 5291 5290 5287 5284 5282 5281 5279 5272 5265 5261 5259 5256 5254 5253 5250 5246 5240 5234 5225 5220 5214 5207 5200 5194 5187 5180 5173
5369 5366 5367 5365 5356 5346 5333 5328 5329 5326 5324 5320 5321 5325 5320 5315 5313 5310 5311 5307 5293 5286 5291 5287 5285 5283 5282 5280 5280 5279 5276 5274 5270 5267 5263 5261 5257 5253 5247 5243 5239 5231 5226 5221 5217 5209 5202 5193 5183 5181 5174 5166 5158 5149
5368 5370 5367 5363 5354 5345 5328 5325 5331 5330 5328 5322 5326 5325 5319 5313 5311 5316 5298 5287 5278 5276 5278 5278 5275 5274 5272 5271 5271 5270 5269 5267 5262 5257 5253 5248 5242 5237 5232 5227 5222 5216 5210 5202 5197 5190 5178 5165 5162 5158 5151 5147 5141 5132
5365 5357 5358 5359 5355 5341 5343 5342 5351 5346 5336 5335 5330 5320 5319 5317 5318 5308 5292 5282 5277 5276 5275 5273 5274 5272 5270 5268 5265 5262 5260 5256 5251 5246 5243 5238 5231 5223 5217 5210 5201 5195 5189 5183 5175 5167 5158 5149 5138 5138 5131 5126 5121 5115
5367 5337 5352 5354 5361 5358 5354 5351 5354 5356 5344 5342 5337 5329 5325 5327 5323 5310 5295 5283 5281 5277 5277 5277 5276 5273 5266 5260 5255 5250 5249 5248 5241 5232 5227 5223 5216 5209 5201 5191 5181 5174 5168 5164 5156 5148 5138 5130 5125 5119 5114 5110 5103 5101
5345 5334 5351 5357 5361 5368 5368 5361 5359 5353 5347 5339 5333 5332 5335 5337 5327 5308 5297 5285 5279 5275 5274 5273 5271 5269 5264 5258 5250 5241 5233 5232 5228 5216 5207 5202 5198 5193 5187 5179 5171 5153 5145 5138 5133 5129 5123 5114 5109 5103 5100 5095 5086 5086
5347 5339 5337 5342 5348 5361 5360 5358 5359 5355 5349 5341 5340 5338 5338 5326 5308 5287 5284 5278 5272 5266 5264 5262 5263 5258 5247 5237 5229 5221 5214 5209 5207 5198 5188 5180 5172 5165 5158 5151 5143 5130 5124 5116 5112 5107 5104 5100 5097 5093 5091 5089 5087 5084
5329 5331 5330 5331 5332 5338 5337 5338 5337 5335 5330 5329 5334 5318 5319 5313 5294 5281 5271 5264 5259 5254 5249 5245 5243 5238 5231 5222 5214 5207 5200 5192 5185 5179 5170 5162 5153 5143 5134 5124 5115 5109 5103 5097 5093 5091 5088 5084 5082 5081 5081 5079 5077 5075
5326 5322 5315 5306 5318 5310 5306 5313 5311 5302 5300 5318 5319 5300 5282 5275 5270 5264 5259 5254 5249 5244 5237 5230 5223 5218 5213 5208 5201 5194 5187 5181 5176 5167 5163 5157 5143 5126 5117 5109 5102 5096 5091 5088 5083 5080 5077 5073 5071 5068 5067 5067 5067 5066
5319 5323 5312 5303 5300 5290 5286 5295 5293 5290 5292 5290 5283 5274 5268 5261 5255 5252 5250 5246 5242 5235 5228 5222 5217 5212 5205 5198 5187 5176 5166 5157 5151 5147 5143 5134 5122 5110 5103 5097 5090 5086 5082 5080 5077 5075 5072 5069 5068 5066 5062 5061 5061 5060
5323 5322 5311 5301 5288 5280 5284 5286 5288 5287 5286 5282 5276 5267 5258 5248 5240 5236 5234 5231 5226 5220 5216 5210 5204 5198 5192 5186 5178 5169 5154 5139 5129 5122 5117 5111 5104 5098 5091 5086 5081 5078 5076 5073 5070 5069 5065 5062 5062 5061 5060 5056 5052 5049
5319 5312 5304 5290 5280 5280 5279 5287 5284 5280 5276 5273 5268 5264 5260 5257 5244 5227 5217 5217 5217 5211 5202 5201 5193 5179 5170 5160 5152 5144 5136 5126 5117 5110 5103 5099 5095 5089 5085 5081 5077 5074 5070 5067 5066 5064 5061 5058 5055 5053 5051 5049 5046 5041
5305 5303 5300 5293 5282 5287 5281 5291 5287 5278 5276 5269 5258 5257 5248 5250 5235 5216 5206 5202 5202 5199 5190 5181 5171 5161 5153 5146 5138 5129 5120 5110 5102 5096 5091 5086 5082 5078 5076 5075 5071 5069 5065 5063 5061 5059 5057 5054 5050 5047 5043 5040 5037 5034